Location: Unspecified
(0.0000°N, 0.0000°E)
Time: 07:25:47
(UTC+00:00)

Vanguard 2 Rocket - Pass Details

Date: 07 October 2022
Orbit: 555 x 3321 km, 32.9° (Epoch: 06 December)

Event Time Altitude Azimuth Distance (km) Brightness Sun altitude
Rises 07:02:42 0° 280° (W) 2,754 8.8 18.6°
Reaches altitude 10° 07:05:16 10° 263° (W) 1,821 8.0 19.2°
Maximum altitude 07:08:23 22° 210° (SSW) 1,278 7.6 20.0°
Drops below altitude 10° 07:11:52 10° 158° (SSE) 2,068 9.2 20.9°
Sets 07:15:02 0° 143° (SE) 3,254 10.4 21.7°
